[[{"header":{"parameterUnit":"m.s-1","parameterCategory":1,"la1":30.2991,"la2":30.254,"lo1":-89.0895,"lo2":-89.0444,"dy":0.0017,"dx":0.0017,"nx":28,"ny":28,"refTime":"2025-06-01T09:00:00:Z","depth":0,"parameterNumber":2,"parameterNumberName":"U-component_of_WINDS"},"data":[0,0,0,0,0,0,0,0,0,0,0,0,0,0,0,0,0,0,0,0,0,0,0,0,0,0,0,0,0,0,0,0,0,0,0,0,0,0,0,0,0,0,0,0,0,0,0,0,0,0,0,0,0,0,0,0,0,0,-0.117,-0.117,0,-0.1156,-0.1156,-0.1155,-0.1139,-0.1139,-0.1139,-0.1138,-0.1123,-0.1123,-0.1123,0,0,0,0,0,0,0,0,0,0,0,0,0,-0.1183,-0.1183,-0.117,-0.117,-0.117,-0.1156,-0.1156,-0.1155,-0.1139,-0.1139,-0.1139,-0.1138,-0.1123,-0.1123,-0.1123,0,0,0,0,0,0,0,0,0,0,0,0,0,-0.1174,-0.1183,-0.117,-0.116,-0.1159,-0.1156,-0.1156,-0.1155,-0.1139,-0.1139,-0.1139,-0.1138,-0.1123,-0.1123,-0.1123,-0.1128,0,0,-0.1122,-0.1122,0,0,0,0,0,0,0,0,-0.1175,-0.1174,-0.1162,-0.1161,-0.116,-0.1149,-0.1154,-0.1146,-0.1139,-0.1147,-0.1138,-0.1138,-0.1132,-0.1131,-0.1129,-0.1127,-0.1126,-0.1122,-0.1121,-0.1121,-0.1121,0,0,0,0,0,0,0,-0.1175,-0.1174,-0.1165,-0.1162,-0.116,-0.1156,-0.1154,-0.1153,-0.1141,-0.1146,-0.1145,-0.1143,-0.1131,-0.1129,-0.1128,-0.1126,-0.1122,-0.1121,-0.1121,-0.1121,-0.1128,-0.1128,0,0,0,0,0,0,-0.1178,-0.1175,-0.1165,-0.1164,-0.1166,-0.1156,-0.1154,-0.1153,-0.1141,-0.1139,-0.1144,-0.1143,-0.113,-0.1129,-0.1128,-0.1133,-0.1121,-0.1121,-0.1121,-0.1127,-0.1128,-0.1128,0,0,0,0,0,0,-0.1178,-0.1177,-0.1166,-0.1169,-0.1167,-0.1156,-0.1155,-0.1153,-0.1151,-0.114,-0.1137,-0.1144,-0.1129,-0.1128,-0.1128,-0.1132,-0.1121,-0.1121,-0.1127,-0.1127,-0.1128,-0.1144,0,0,0,0,0,0,-0.1178,-0.1177,-0.1179,-0.1169,-0.1167,-0.1166,-0.1155,-0.1153,-0.115,-0.1149,-0.1139,-0.1137,-0.1129,-0.1128,-0.1128,-0.1132,-0.112,-0.1126,-0.1127,-0.1128,-0.1143,-0.1145,-0.1146,0,0,0,0,0,-0.1179,-0.1184,-0.1179,-0.1178,-0.117,-0.1167,-0.1165,-0.1156,-0.1151,-0.1153,-0.1145,-0.1138,-0.1132,-0.1128,-0.1127,-0.1131,-0.1126,-0.1127,-0.1128,-0.1142,-0.1144,-0.1146,0,0,0,0,0,0,-0.1195,-0.1183,-0.1177,-0.118,-0.1174,-0.1164,-0.1166,-0.1159,-0.1155,-0.1154,-0.1142,-0.114,-0.1141,-0.1136,-0.1133,-0.1136,-0.1128,-0.1128,-0.1139,-0.1141,-0.1143,-0.1144,-0.112,0,0,0,0,0,-0.1199,-0.1198,-0.1187,-0.119,-0.1187,-0.1177,-0.1176,-0.1169,-0.1163,-0.116,-0.1153,-0.1147,-0.1144,-0.1142,-0.1139,-0.1142,-0.1139,-0.1144,-0.1146,-0.1147,-0.1148,-0.1149,-0.1151,-0.1131,-0.113,-0.113,0,0,-0.1207,-0.12,-0.12,-0.1193,-0.1188,-0.1187,-0.1175,-0.1175,-0.1173,-0.116,-0.1159,-0.1154,-0.1147,-0.1148,-0.1148,-0.1144,-0.1153,-0.1148,-0.115,-0.1149,-0.115,-0.1152,-0.1153,-0.1131,-0.1131,-0.1131,0,0,-0.122,-0.1215,-0.1217,-0.1212,-0.1205,-0.1198,-0.1198,-0.1189,-0.1185,-0.1184,-0.1174,-0.1172,-0.1167,-0.1162,-0.1159,-0.117,-0.1163,-0.1169,-0.1179,-0.118,-0.1181,-0.1182,-0.1186,-0.1188,-0.117,-0.117,-0.117,0,-0.1231,-0.1229,-0.1219,-0.1219,-0.1216,-0.1204,-0.1205,-0.1201,-0.1193,-0.1191,-0.1186,-0.1179,-0.1174,-0.1173,-0.1176,-0.1174,-0.1174,-0.117,-0.1182,-0.1183,-0.1184,-0.1188,-0.1189,-0.1171,-0.1171,-0.1171,-0.1171,0,-0.1242,-0.1241,-0.1243,-0.1236,-0.1233,-0.1234,-0.1223,-0.1222,-0.1215,-0.1209,-0.1208,-0.12,-0.1195,-0.1194,-0.1188,-0.1193,-0.119,-0.1184,-0.1176,-0.1187,-0.119,-0.1191,-0.1172,-0.1172,-0.1171,-0.1171,0,0,-0.1266,-0.1253,-0.1254,-0.125,-0.1241,-0.1239,-0.1239,-0.1234,-0.1233,-0.1227,-0.1227,-0.1222,-0.1216,-0.1213,-0.1205,-0.1206,-0.1215,-0.1199,-0.1199,-0.1202,-0.122,-0.1225,-0.1227,-0.121,-0.121,-0.121,-0.122,0,-0.1278,-0.1277,-0.1268,-0.127,-0.1268,-0.1257,-0.1256,-0.125,-0.1244,-0.1242,-0.1234,-0.1231,-0.1224,-0.1221,-0.1222,-0.1214,-0.1218,-0.1213,-0.1209,-0.1209,-0.1211,-0.1228,-0.1234,-0.1243,-0.1222,-0.1222,-0.1222,0,-0.1292,-0.1288,-0.1289,-0.128,-0.1279,-0.1279,-0.1273,-0.1271,-0.1263,-0.1259,-0.1255,-0.1246,-0.1245,-0.1237,-0.1235,-0.1232,-0.1229,-0.1225,-0.1225,-0.1225,-0.1216,-0.1228,-0.1246,-0.1248,-0.1224,-0.1224,-0.1223,0,-0.1309,-0.1304,-0.1304,-0.1301,-0.129,-0.129,-0.1285,-0.1278,-0.1275,-0.127,-0.1268,-0.1262,-0.126,-0.1255,-0.1246,-0.1241,-0.1244,-0.1236,-0.124,-0.1241,-0.1242,-0.1242,-0.126,-0.124,-0.124,-0.124,-0.124,0,-0.1324,-0.1325,-0.1311,-0.1311,-0.1312,-0.1301,-0.1303,-0.1297,-0.129,-0.1289,-0.1278,-0.1277,-0.1264,-0.1261,-0.1253,-0.1252,-0.1251,-0.1247,-0.1245,-0.1248,-0.1249,-0.1246,-0.1245,-0.1241,-0.124,-0.124,-0.124,0,-0.1343,-0.1334,-0.1333,-0.1322,-0.132,-0.1321,-0.1312,-0.1311,-0.1304,-0.1302,-0.1301,-0.129,-0.1286,-0.1276,-0.1269,-0.1264,-0.1265,-0.1261,-0.1267,-0.1266,-0.1271,-0.127,-0.1288,-0.129,-0.1269,-0.1269,-0.127,0,-0.1353,-0.1354,-0.1343,-0.1341,-0.1337,-0.1334,-0.1332,-0.1321,-0.1318,-0.131,-0.131,-0.1305,-0.1301,-0.1295,-0.1286,-0.128,-0.1276,-0.1283,-0.1275,-0.1278,-0.1276,-0.1276,-0.1276,-0.1285,-0.1285,-0.1285,-0.1285,0,-0.1371,-0.1366,-0.1363,-0.1358,-0.1355,-0.135,-0.1345,-0.1344,-0.1331,-0.1329,-0.1325,-0.1321,-0.1314,-0.131,-0.1303,-0.1297,-0.1289,-0.1288,-0.1288,-0.1291,-0.1295,-0.1293,-0.1272,-0.1287,-0.1287,-0.1287,-0.1287,-0.1287,-0.1386,-0.1386,-0.1378,-0.1375,-0.137,-0.1365,-0.1364,-0.1356,-0.1353,-0.1346,-0.134,-0.1336,-0.1328,-0.1318,-0.1314,-0.131,-0.1306,-0.1307,-0.1307,-0.1308,-0.1309,-0.1296,-0.1309,-0.1309,-0.1309,-0.1309,-0.1309,0,-0.1404,-0.1398,-0.1395,-0.1388,-0.1385,-0.1377,-0.1371,-0.1369,-0.1366,-0.1359,-0.1355,-0.135,-0.1345,-0.1335,-0.133,-0.1329,-0.1325,-0.1327,-0.1327,-0.1326,-0.1313,-0.1313,-0.1331,-0.1331,-0.1331,-0.1331,-0.1331,-0.1331,-0.1413,-0.1412,-0.1406,-0.1403,-0.1397,-0.1394,-0.1391,-0.1386,-0.1381,-0.1376,-0.1372,-0.1366,-0.1358,-0.1351,-0.1346,-0.1343,-0.1341,-0.1345,-0.1341,-0.1329,-0.1327,-0.1325,-0.1325,-0.1345,-0.1345,-0.1355,-0.1355,-0.1355]},{"header":{"parameterUnit":"m.s-1","parameterCategory":1,"la1":30.2991,"la2":30.254,"lo1":-89.0895,"lo2":-89.0444,"dy":0.0017,"dx":0.0017,"nx":28,"ny":28,"refTime":"2025-06-01T09:00:00:Z","depth":0,"parameterNumber":3,"parameterNumberName":"V-component_of_WINDS"},"data":[0,0,0,0,0,0,0,0,0,0,0,0,0,0,0,0,0,0,0,0,0,0,0,0,0,0,0,0,0,0,0,0,0,0,0,0,0,0,0,0,0,0,0,0,0,0,0,0,0,0,0,0,0,0,0,0,0,0,-0.6416,-0.6417,0,-0.6488,-0.6489,-0.649,-0.648,-0.6479,-0.6478,-0.6477,-0.6552,-0.6555,-0.6558,0,0,0,0,0,0,0,0,0,0,0,0,0,-0.6274,-0.6276,-0.6416,-0.6417,-0.6418,-0.6488,-0.6489,-0.649,-0.6481,-0.6479,-0.6478,-0.6476,-0.6551,-0.6554,-0.6558,0,0,0,0,0,0,0,0,0,0,0,0,0,-0.6339,-0.6277,-0.6416,-0.6422,-0.6423,-0.6488,-0.6489,-0.649,-0.6481,-0.6479,-0.6477,-0.6476,-0.6549,-0.6554,-0.6558,-0.6622,0,0,-0.6572,-0.6574,0,0,0,0,0,0,0,0,-0.6336,-0.6345,-0.642,-0.6422,-0.6423,-0.6473,-0.6466,-0.6534,-0.6481,-0.6459,-0.6477,-0.6475,-0.6527,-0.6533,-0.6551,-0.6626,-0.6629,-0.6573,-0.6576,-0.6578,-0.6579,0,0,0,0,0,0,0,-0.6331,-0.6342,-0.6445,-0.6421,-0.6423,-0.6421,-0.6429,-0.6479,-0.6502,-0.6461,-0.646,-0.6469,-0.6528,-0.6546,-0.6552,-0.663,-0.6573,-0.6577,-0.658,-0.6582,-0.6761,-0.6763,0,0,0,0,0,0,-0.6325,-0.6338,-0.6442,-0.6447,-0.6374,-0.6425,-0.6434,-0.6459,-0.6501,-0.6506,-0.647,-0.6468,-0.6539,-0.6547,-0.6555,-0.6633,-0.6578,-0.6582,-0.6585,-0.6759,-0.6762,-0.6764,0,0,0,0,0,0,-0.6322,-0.6334,-0.644,-0.6392,-0.6405,-0.643,-0.6458,-0.6461,-0.648,-0.6509,-0.6513,-0.6485,-0.6538,-0.6548,-0.6606,-0.6635,-0.6584,-0.6588,-0.6757,-0.676,-0.6763,-0.6789,0,0,0,0,0,0,-0.6318,-0.6333,-0.6357,-0.6393,-0.6408,-0.6489,-0.646,-0.6464,-0.6488,-0.6486,-0.6524,-0.6528,-0.6538,-0.6599,-0.661,-0.6641,-0.6592,-0.6754,-0.6758,-0.6762,-0.6786,-0.6793,-0.6798,0,0,0,0,0,-0.6313,-0.6362,-0.6359,-0.6371,-0.6439,-0.649,-0.6499,-0.6508,-0.649,-0.6515,-0.6533,-0.6527,-0.663,-0.6605,-0.6617,-0.665,-0.6753,-0.6757,-0.6762,-0.6783,-0.6791,-0.6798,0,0,0,0,0,0,-0.633,-0.6367,-0.6363,-0.6425,-0.6455,-0.6489,-0.652,-0.6517,-0.6552,-0.6549,-0.656,-0.6568,-0.6626,-0.6644,-0.6614,-0.6714,-0.6689,-0.6696,-0.6701,-0.6709,-0.6715,-0.671,-0.6596,0,0,0,0,0,-0.6341,-0.6379,-0.6409,-0.6461,-0.6476,-0.6496,-0.6519,-0.6523,-0.6554,-0.6567,-0.6589,-0.662,-0.6659,-0.6685,-0.6723,-0.6788,-0.6796,-0.6817,-0.6823,-0.6828,-0.6835,-0.6871,-0.6881,-0.6779,-0.6779,-0.6779,0,0,-0.6364,-0.6389,-0.6412,-0.6466,-0.6489,-0.6529,-0.6506,-0.6549,-0.658,-0.6573,-0.6629,-0.6646,-0.6681,-0.6743,-0.6771,-0.6759,-0.6864,-0.6834,-0.6838,-0.6842,-0.6877,-0.6886,-0.6895,-0.6782,-0.6781,-0.6781,0,0,-0.6427,-0.6449,-0.6495,-0.6519,-0.6554,-0.6567,-0.6578,-0.6612,-0.6624,-0.6679,-0.6675,-0.6712,-0.6779,-0.6804,-0.6826,-0.6898,-0.6894,-0.691,-0.6944,-0.698,-0.6988,-0.6995,-0.7022,-0.7031,-0.6917,-0.6917,-0.6917,0,-0.6451,-0.6511,-0.6519,-0.6563,-0.6587,-0.6583,-0.663,-0.6653,-0.6699,-0.6715,-0.6701,-0.6786,-0.6809,-0.6877,-0.6895,-0.6912,-0.6926,-0.6906,-0.6986,-0.6993,-0.7,-0.7026,-0.7035,-0.6918,-0.6918,-0.6918,-0.6918,0,-0.654,-0.6582,-0.6615,-0.6659,-0.6686,-0.6732,-0.6747,-0.6774,-0.6776,-0.6791,-0.6848,-0.6875,-0.6919,-0.6935,-0.6938,-0.7003,-0.6995,-0.6983,-0.6958,-0.7011,-0.7036,-0.7045,-0.6921,-0.692,-0.692,-0.6919,0,0,-0.6616,-0.6664,-0.6676,-0.6697,-0.6735,-0.6768,-0.6813,-0.6855,-0.6879,-0.691,-0.6949,-0.7006,-0.6996,-0.702,-0.7026,-0.7057,-0.7114,-0.7042,-0.7043,-0.7055,-0.7188,-0.7197,-0.7209,-0.711,-0.7112,-0.7114,-0.7186,0,-0.6683,-0.6763,-0.6772,-0.6843,-0.6882,-0.6879,-0.6918,-0.6947,-0.6961,-0.6997,-0.7013,-0.7054,-0.7036,-0.7051,-0.7082,-0.71,-0.7141,-0.7095,-0.7147,-0.7149,-0.7139,-0.7221,-0.7231,-0.7297,-0.7195,-0.7197,-0.7198,0,-0.6772,-0.6807,-0.6882,-0.6916,-0.6932,-0.6968,-0.7007,-0.7041,-0.7073,-0.7082,-0.7109,-0.7111,-0.7158,-0.7131,-0.7196,-0.7165,-0.7187,-0.7199,-0.7202,-0.7208,-0.7177,-0.723,-0.7319,-0.7329,-0.7213,-0.7211,-0.721,0,-0.6821,-0.6886,-0.694,-0.6957,-0.6997,-0.7023,-0.7041,-0.7071,-0.7096,-0.7131,-0.7147,-0.7187,-0.7209,-0.724,-0.7252,-0.7231,-0.7318,-0.7291,-0.7327,-0.7327,-0.7346,-0.7345,-0.744,-0.7359,-0.7359,-0.7358,-0.7358,0,-0.6896,-0.6942,-0.6962,-0.6995,-0.7047,-0.7057,-0.7109,-0.7126,-0.7153,-0.719,-0.7189,-0.7223,-0.7237,-0.7274,-0.7284,-0.7338,-0.7347,-0.7356,-0.7358,-0.7357,-0.7356,-0.7372,-0.7368,-0.7361,-0.736,-0.736,-0.7359,0,-0.6959,-0.6975,-0.7033,-0.7066,-0.7076,-0.7113,-0.7142,-0.7174,-0.7188,-0.7235,-0.7246,-0.7268,-0.7312,-0.7327,-0.738,-0.7386,-0.7449,-0.7447,-0.7438,-0.7438,-0.7473,-0.747,-0.7583,-0.7599,-0.7506,-0.7507,-0.7508,0,-0.7006,-0.7042,-0.7079,-0.7104,-0.7123,-0.7162,-0.7187,-0.7198,-0.7225,-0.7265,-0.7292,-0.7335,-0.737,-0.744,-0.7461,-0.7502,-0.7501,-0.7538,-0.7507,-0.7505,-0.7503,-0.7501,-0.7505,-0.7544,-0.7545,-0.7546,-0.7546,0,-0.7088,-0.7094,-0.7131,-0.717,-0.72,-0.7232,-0.7263,-0.7283,-0.7298,-0.7328,-0.7373,-0.74,-0.7454,-0.7497,-0.7538,-0.7557,-0.7555,-0.7556,-0.7566,-0.7565,-0.7559,-0.7564,-0.7454,-0.7553,-0.7552,-0.7552,-0.7552,-0.7551,-0.7146,-0.7178,-0.7209,-0.725,-0.7274,-0.7302,-0.7335,-0.7352,-0.7389,-0.7434,-0.7438,-0.7486,-0.7518,-0.7573,-0.7594,-0.7632,-0.7622,-0.7637,-0.7641,-0.7645,-0.7648,-0.7552,-0.764,-0.764,-0.7639,-0.7639,-0.7639,0,-0.7229,-0.7248,-0.7286,-0.7329,-0.7361,-0.7355,-0.7389,-0.7416,-0.7458,-0.7488,-0.7522,-0.7574,-0.7615,-0.764,-0.7682,-0.7707,-0.7707,-0.7718,-0.7717,-0.7721,-0.7654,-0.7641,-0.7717,-0.7717,-0.7717,-0.7717,-0.7717,-0.7717,-0.7275,-0.7329,-0.7339,-0.7404,-0.7424,-0.7471,-0.7491,-0.7517,-0.7541,-0.7598,-0.7633,-0.7648,-0.7676,-0.772,-0.7758,-0.7764,-0.778,-0.7792,-0.7797,-0.7734,-0.7726,-0.7718,-0.7706,-0.7795,-0.7795,-0.7861,-0.7862,-0.7862]}]]